📊 Raw Sensor Data

Showing records 40026 to 40050 of 84,956 total

ID Distance (ft) Battery V Battery A Int Temp (°F) Int Humid (%) Ext Temp (°F) Solar V RSSI SNR Time Stamp
44943 15.3 3.75 0 59 43 62 4.50 -68 8 06/30/2025 06:15 AM
44942 15.3 3.90 -8 58 43 60 4.50 -69 8 06/30/2025 06:00 AM
44941 15.3 3.90 -9 58 43 59 2.00 -68 8 06/30/2025 05:45 AM
44940 15.3 3.92 -5 58 43 59 0.50 -69 7 06/30/2025 05:30 AM
44939 15.3 3.76 -5 58 43 59 0.00 -67 7 06/30/2025 05:15 AM
44938 15.3 3.73 -5 58 43 59 0.00 -68 8 06/30/2025 05:00 AM
44937 15.3 3.77 -5 58 43 59 0.00 -67 8 06/30/2025 04:45 AM
44936 15.3 3.77 -5 59 43 59 0.00 -69 8 06/30/2025 04:30 AM
44935 15.3 3.78 -5 59 43 60 0.00 -68 8 06/30/2025 04:15 AM
44934 15.3 3.76 -5 59 43 60 0.00 -67 8 06/30/2025 04:00 AM
44933 15.3 3.76 -5 59 43 61 0.00 -68 7 06/30/2025 03:45 AM
44932 15.3 3.79 -5 59 44 61 0.00 -67 8 06/30/2025 03:30 AM
44931 15.3 3.78 -5 59 44 61 0.00 -67 8 06/30/2025 03:15 AM
44930 15.3 3.80 -5 59 44 61 0.10 -66 8 06/30/2025 03:00 AM
44929 15.3 3.77 -25 59 44 61 0.00 -67 8 06/30/2025 02:45 AM
44928 15.3 3.93 -5 60 44 61 0.00 -66 8 06/30/2025 02:30 AM
44927 15.3 3.93 -5 60 44 61 0.00 -66 8 06/30/2025 02:15 AM
44926 15.3 3.93 -5 61 44 62 0.00 -66 8 06/30/2025 02:00 AM
44925 15.3 3.93 -5 61 44 61 0.00 -68 9 06/30/2025 01:45 AM
44924 15.3 3.94 -5 61 44 63 0.00 -66 7 06/30/2025 01:30 AM
44923 15.3 3.94 -5 61 45 63 0.10 -66 8 06/30/2025 01:15 AM
44922 15.3 3.80 -5 62 45 65 0.00 -66 8 06/30/2025 01:00 AM
44921 15.3 3.78 -5 63 45 63 0.00 -66 8 06/30/2025 12:45 AM
44920 15.3 3.80 -5 63 45 64 0.00 -66 7 06/30/2025 12:30 AM
44919 15.3 3.80 -5 64 46 65 0.00 -65 7 06/30/2025 12:15 AM